This demonstration page uses our WeatherBlox Daily Observations layout. Learn more.

Left ArrowRight Arrow

Hourly Observations for April 13, 2019

Temp ( °F °C ) Dew Point ( °F °C ) Humidity (%) Winds ( mph kmh ) Pressure ( in mb ) Visibility ( mi km ) Precip ( " mm )
12:15 am 00:15 Clear 29 -1.6 26 -3.3 88 88 WNW 5 7 30.17 1022 10 16 N/A
12:35 am 00:35 Clear 29 -1.7 26 -3.5 88 88 W 6 9 30.17 1022 10 16 N/A
12:55 am 00:55 Clear 29 -1.8 25 -4 85 85 WSW 5 7 30.18 1022 10 16 N/A
1:15 am 01:15 Clear 29 -1.9 25 -3.7 88 88 WSW 6 9 30.19 1022 10 16 N/A
1:35 am 01:35 Clear 28 -2 25 -3.9 87 87 WSW 5 7 30.19 1022 10 16 N/A
1:55 am 01:55 Clear 28 -2 25 -4 86 86 W 7 11 30.18 1022 10 16 N/A
2:15 am 02:15 Clear 29 -1.9 25 -4 86 86 W 5 7 30.18 1022 10 16 N/A
2:35 am 02:35 Clear 28 -2.2 24 -4.3 86 86 WNW 5 7 30.18 1022 10 16 N/A
2:55 am 02:55 Partly Cloudy 28 -2.2 25 -4 88 88 NNW 7 11 30.18 1022 10 16 N/A
3:15 am 03:15 Partly Cloudy 27 -2.9 24 -4.7 88 88 NNW 6 9 30.19 1022 10 16 N/A
3:35 am 03:35 Clear 26 -3.1 23 -4.9 88 88 NNW 5 7 30.19 1022 10 16 N/A
3:55 am 03:55 Clear 26 -3.3 23 -4.8 90 90 NNW 6 9 30.19 1022 10 16 N/A
4:15 am 04:15 Clear 25 -4 22 -5.6 89 89 WNW 3 6 30.21 1023 10 16 N/A
4:35 am 04:35 Clear 26 -3.6 22 -5.3 88 88 SW 5 7 30.22 1023 10 16 N/A
4:55 am 04:55 Partly Cloudy 26 -3.5 22 -5.3 88 88 WSW 3 6 30.23 1024 10 16 N/A
5:15 am 05:15 Partly Cloudy 26 -3.5 22 -5.3 88 88 W 3 6 30.24 1024 10 16 N/A
5:35 am 05:35 Partly Cloudy 26 -3.4 23 -5.1 88 88 WNW 5 7 30.24 1024 10 16 N/A
5:55 am 05:55 Mostly Cloudy 26 -3.3 23 -5 88 88 WNW 5 7 30.24 1024 10 16 N/A
6:15 am 06:15 Cloudy 28 -2.3 24 -4.2 87 87 WNW 7 11 30.23 1024 10 16 N/A
6:35 am 06:35 Cloudy 28 -2 25 -4 86 86 NW 6 9 30.21 1023 10 16 N/A
6:55 am 06:55 Partly Cloudy 28 -2.5 24 -4.5 86 86 NW 9 15 30.19 1022 10 16 N/A
7:15 am 07:15 Partly Cloudy 28 -2.5 24 -4.5 86 86 NW 8 13 30.17 1022 10 16 N/A
7:35 am 07:35 Sunny 27 -2.6 24 -4.7 86 86 W 3 6 30.21 1023 10 16 N/A
7:55 am 07:55 Partly Cloudy 29 -1.9 25 -4 86 86 W 5 7 30.22 1023 10 16 N/A
8:15 am 08:15 Cloudy 29 -1.8 25 -4 85 85 W 6 9 30.23 1024 10 16 N/A
8:35 am 08:35 Cloudy 30 -1.3 25 -3.7 84 84 W 6 9 30.24 1024 10 16 N/A
8:55 am 08:55 Cloudy 30 -0.9 26 -3.3 84 84 W 6 9 30.24 1024 10 16 N/A
9:15 am 09:15 Cloudy 31 -0.5 26 -3.1 83 83 W 5 7 30.23 1024 10 16 N/A
9:35 am 09:35 Cloudy 32 undefined 27 -2.7 82 82 W 8 13 30.23 1024 10 16 N/A
9:55 am 09:55 Cloudy 33 0.4 27 -2.6 81 81 NW 10 17 30.22 1023 10 16 N/A
10:15 am 10:15 Cloudy 34 1 28 -2.1 80 80 NW 7 11 30.22 1023 10 16 N/A
10:35 am 10:35 Mostly Cloudy 35 1.5 28 -2.3 76 76 NNW 8 13 30.22 1023 10 16 N/A
10:55 am 10:55 Partly Cloudy 37 2.8 29 -1.4 74 74 NW 5 7 30.22 1023 10 16 N/A
11:15 am 11:15 Sunny 40 4.3 29 -1.7 65 65 NNW 5 7 30.22 1023 10 16 N/A
11:35 am 11:35 Sunny 42 5.6 28 -2.2 58 58 NNW 8 13 30.21 1023 10 16 N/A
11:55 am 11:55 Sunny 43 6.3 30 -0.9 60 60 N 6 9 30.20 1023 10 16 N/A
12:15 pm 12:15 Sunny 44 6.8 28 -2 54 54 NNE 6 9 30.18 1022 10 16 N/A
12:35 pm 12:35 Sunny 45 7.3 28 -2.1 52 52 N 10 17 30.17 1022 10 16 N/A
12:55 pm 12:55 Sunny 46 7.9 28 -2.1 50 50 N 8 13 30.16 1021 10 16 N/A
1:15 pm 13:15 Sunny 47 8.1 27 -3 46 46 NNE 7 11 30.16 1021 10 16 N/A
1:35 pm 13:35 Sunny 47 8.4 26 -3.2 44 44 NNE 5 7 30.16 1021 10 16 N/A
1:55 pm 13:55 Mostly Cloudy 48 8.8 26 -3.1 43 43 ENE 7 11 30.14 1021 10 16 N/A
2:15 pm 14:15 Cloudy 48 9 25 -3.8 41 41 NNE 5 7 30.13 1020 10 16 N/A
2:35 pm 14:35 Cloudy 49 9.3 26 -3.3 41 41 NNE 6 9 30.13 1020 10 16 N/A
2:55 pm 14:55 Cloudy 49 9.5 24 -4.3 38 38 NNE 9 15 30.12 1020 10 16 N/A
3:15 pm 15:15 Partly Cloudy 50 9.9 27 -3 41 41 N 8 13 30.10 1019 10 16 N/A
3:35 pm 15:35 Partly Cloudy 49 9.7 24 -4.5 37 37 NNE 7 11 30.07 1018 10 16 N/A
3:55 pm 15:55 Sunny 51 10.3 26 -3.2 39 39 NE 8 13 30.07 1018 10 16 N/A
4:15 pm 16:15 Sunny 51 10.4 25 -3.7 37 37 ENE 5 7 30.07 1018 10 16 N/A
4:35 pm 16:35 Partly Cloudy 51 10.5 25 -3.7 37 37 NE 3 6 30.07 1018 10 16 N/A
4:55 pm 16:55 Partly Cloudy 51 10.7 26 -3.2 38 38 N 8 13 30.05 1018 10 16 N/A
5:15 pm 17:15 Mostly Cloudy 51 10.4 25 -4.1 36 36 NNE 5 7 30.06 1018 10 16 N/A
5:35 pm 17:35 Cloudy 51 10.3 24 -4.4 36 36 N N/A 30.06 1018 10 16 N/A
5:55 pm 17:55 Cloudy 51 10.3 27 -2.7 40 40 WNW 5 7 30.05 1018 10 16 N/A
6:15 pm 18:15 Cloudy 50 10 27 -2.6 41 41 NNW 5 7 30.05 1018 10 16 N/A
6:35 pm 18:35 Cloudy 50 10 30 -1.2 46 46 NNW 8 13 30.06 1018 10 16 N/A
6:55 pm 18:55 Mostly Cloudy 49 9.6 30 -0.9 48 48 NNW 8 13 30.06 1018 10 16 N/A
7:15 pm 19:15 Partly Cloudy 49 9.5 30 -1.1 48 48 NW 7 11 30.07 1018 10 16 N/A
7:35 pm 19:35 Partly Cloudy 48 9.1 30 -1.2 49 49 NNW 9 15 30.07 1018 10 16 N/A
7:55 pm 19:55 Partly Cloudy 46 7.7 31 -0.4 57 57 NNW 9 15 30.08 1019 10 16 N/A
8:15 pm 20:15 Cloudy 44 6.8 32 -0.1 62 62 NW 7 11 30.09 1019 10 16 N/A
8:35 pm 20:35 Cloudy 44 6.8 32 -0.2 61 61 NNW 7 11 30.09 1019 10 16 N/A
8:55 pm 20:55 Cloudy 43 6.2 32 undefined 65 65 NNE 6 9 30.10 1019 10 16 N/A
9:15 pm 21:15 Cloudy 42 5.6 31 -0.5 65 65 ENE 6 9 30.10 1019 10 16 N/A
9:35 pm 21:35 Mostly Cloudy 41 4.8 31 -0.7 68 68 ENE 6 9 30.11 1020 10 16 N/A
9:55 pm 21:55 Partly Cloudy 40 4.5 29 -1.5 65 65 ENE 6 9 30.11 1020 10 16 N/A
10:15 pm 22:15 Clear 38 3.4 28 -2.2 67 67 ENE 6 9 30.12 1020 10 16 N/A
10:35 pm 22:35 Clear 36 2.3 28 -2.4 71 71 E 5 7 30.13 1020 10 16 N/A
10:55 pm 22:55 Clear 36 2.4 28 -2.5 70 70 E 6 9 30.11 1020 10 16 N/A
11:15 pm 23:15 Clear 35 1.6 27 -2.7 73 73 E 6 9 30.11 1020 10 16 N/A
11:35 pm 23:35 Clear 35 1.4 27 -2.8 74 74 N N/A 30.11 1020 10 16 N/A
11:55 pm 23:55 Clear 34 1 27 -3 75 75 E 3 6 30.11 1020 10 16 N/A

Powered by AerisWeather